Regional Weather Roundup
Issued by NWS Charleston, SC

Home | Current Version | Previous Version | Text Only | Print | Product List | Glossary On
Versions: 1 2 3 4 5 6 7 8 9 10 11 12 13 14 15 16 17 18 19 20 21 22 23 24 25 26 27 28 29 30 31 32 33 34 35 36 37 38 39 40 41 42 43 44 45 46 47 48 49 50
000
ASUS42 KCHS 250425
RWRCHS

REGIONAL WEATHER ROUNDUP
NATIONAL WEATHER SERVICE CHARLESTON SC
1100 PM EST WED DEC 24 2014

NOTE: "FAIR" INDICATES FEW OR NO CLOUDS BELOW 12,000 FEET WITH NO
SIGNIFICANT WEATHER AND/OR OBSTRUCTIONS TO VISIBILITY.

NOT ALL STATIONS ARE QUALITY CONTROLLED BY THE NATIONAL
WEATHER SERVICE. USE DATA WITH CAUTION...ESPECIALLY
DEWPOINT OBSERVATIONS.

SCZ027-030-031-034>040-042>050-250500-
...SOUTHEAST SOUTH CAROLINA...

CITY           SKY/WX    TMP DP  RH WIND       PRES   REMARKS
N CHARLESTON   LGT RAIN  63  62  97 SW8       29.80R
WATERFRONT PRK   N/A     63 N/A N/A SW8         N/A
MOUNT PLEASANT MOCLDY    64  64 100 SW8       29.81R
PINOPOLIS        N/A     66  64  94 SW7       29.71R
MONCKS CORNER  CLOUDY    66  64  94 SW8       29.80R
SUMMERVILLE    CLOUDY    64  64 100 SW6       29.80R
BEAUFORT MCAS  CLOUDY    66  64  93 SW9       29.81R
BEAUFORT ARPT  CLOUDY    63  63 100 SW3       29.82R
HILTON HEAD IS MOCLDY    64  64 100 S7        29.83F
WALTERBORO     CLOUDY    68 N/A N/A SW9       29.80F
ALLENDALE      LGT RAIN  63  59  88 W8G17     29.81R

...SOUTHERN MIDLANDS AND PEE DEE...

CITY           SKY/WX    TMP DP  RH WIND       PRES   REMARKS
GEORGETOWN     NOT AVBL
KINGSTREE      NOT AVBL
ORANGEBURG     LGT RAIN  66  63  90 SW12      29.77R
BARNWELL       CLOUDY    61  55  82 W12G23    29.82R
AIKEN          CLOUDY    57  55  94 W13G23    29.84F
MANNING        CLOUDY    66 N/A N/A SW7       29.77R
COLUMBIA       LGT RAIN  62  57  83 W28G35    29.79R
SUMTER         LGT RAIN  64  63  94 S13       29.74R
FLORENCE       CLOUDY    66  63  90 SW13      29.76R
MYRTLE BEACH   CLOUDY    63  61  94 S7        29.77R
N MYRTLE BEACH CLOUDY    60  58  92 SW15      29.76F

$$

GAZ063-065-086>088-099>101-113>116-118-119-134>141-150-250500-
...SOUTHEAST GEORGIA...

CITY           SKY/WX    TMP DP  RH WIND       PRES   REMARKS
SAVANNAH ARPT  CLOUDY    66  63  88 W13       29.83F
HUNTER AAF     MOCLDY    67  67 100 SW10      29.82R
FORT STEWART   CLOUDY    66  63  88 W12       29.82F
STATESBORO     CLOUDY    60  59  97 W14G25    29.84F
SYLVANIA       CLOUDY    61  58  91 W13       29.84R
CLAXTON        CLOUDY    59  55  88 W9G17     29.86R

...CSRA...CENTRAL AND FAR SOUTHEAST GEORGIA...

CITY           SKY/WX    TMP DP  RH WIND       PRES   REMARKS
THOMSON        CLOUDY    54  49  82 W13G18    29.90F
AUGUSTA-BUSH   CLOUDY    58  50  75 W16G30    29.84R
AUGUSTA-DANIEL CLOUDY    59  51  75 VRB6      29.85R
SWAINSBORO     CLOUDY    59  59 100 W7        29.86F
VIDALIA        CLOUDY    55  52  88 W6        29.87F
EASTMAN        CLOUDY    54  47  77 W7G16     29.95R
HAZLEHURST     CLOUDY    57  54  89 W6        29.92R
ALMA           CLOUDY    59  53  80 W9        29.87S
WAYCROSS       CLOUDY    64  60  87 W13       29.90R
JESUP          CLOUDY    68  64  88 CALM      29.85F
BAXLEY         CLOUDY    59  50  72 W8        29.89R
BRUNSWICK      CLOUDY    66  61  82 W9G17     29.86F
SAINT SIMONS   CLOUDY    66  61  84 SW13G20   29.87R

$$

SCZ027-028-034-036>038-045-046-048>050-GAZ119-141-250500-
...LAKE AND SUPPLEMENTAL COASTAL OBSERVATIONS...

STATION/POSITION TIME  TEMP    WIND        PRES    WAVE   SWELL
                       AIR SEA DIR/SP/G            HT/PER HT/PER/DIR
                 (UTC) (F)     (DEG/KT/KT) (MB)    (FT/S) (FT/S/D)
UPR LAKE MARION  NOT AVBL
WINYAH BAY       0400   63     220/  9     1007.0F
LAKE MURRAY      0400   59     270/ 20/ 26 1008.1R
ACE BASIN NERRS  NOT AVBL
FORT PULASKI     0400   63 56  200/  5/  7 1010.7R
SAPELO ISLAND    0400   64     230/ 13     1011.0S

$$

ANZ835-935-AMZ111-154-330-350-352-354-370-450-454-472-250500-
...C-MAN AND BUOY OBSERVATIONS...

STATION/POSITION TIME  TEMP    WIND        PRES    WAVE   SWELL
                       AIR SEA DIR/SP/G            HT/PER HT/PER/DIR
                 (UTC) (F)     (DEG/KT/KT) (MB)    (FT/S) (FT/S/D)
BUOY 41004       0400   72 73  220/ 21/ 25 1007.9S   7/ 8   5/ 8
BUOY 41008       0400   62 59  220/ 16/ 17 1011.2R   4/ 7
FOLLY BEACH CMAN 0400   61     230/ 12/ 15 1010.0R
CAPERS NEARSHORE NOT AVBL
FRIPP NEARSHORE  NOT AVBL


STATION/POSITION TIME  TEMP    WIND        PRES    WAVE   SWELL
                       AIR SEA DIR/SP/G            HT/PER HT/PER/DIR
                 (UTC) (F)     (DEG/KT/KT) (MB)    (FT/S) (FT/S/D)
5E ST. MARYS GA  0400      62                N/A     4/ 6
FRYING PAN BUOY  0400   72 71  210/ 19/ 23 1008.8F   7/ 8   3/170/ 8
BUOY 41025       0400   75                 1008.2F   9/ 8
CAPE LOOKOUT NC  0400   65     170/ 16/ 17 1007.7F
BUOY 41002       0342   74 71  190/ 19/ 23 1013.9F   6/ 6
BUOY 41010       0400   77 77  190/ 23/ 27 1013.3S   6/ 6   2/110/10
ST AUGUSTINE FL  0400   65     270/  9/ 13 1013.6R


$$



USA.gov is the U.S. government's official web portal to all federal, state and local government web resources and services.